This demonstration page uses our WeatherBlox Daily Observations layout. Learn more.

Left ArrowRight Arrow

39.51506, -84.39828

Hourly Observations for February 24, 2017

Temp ( °F °C ) Dew Point ( °F °C ) Humidity (%) Winds ( mph kmh ) Pressure ( in mb ) Visibility ( mi km ) Precip ( " mm )
12:15 am 00:15 Partly Cloudy 59 15.2 52 11.2 77 77 undefined N/A 29.74 1007 10 16 0.00 0.00
12:35 am 00:35 Partly Cloudy 61 16.2 53 11.5 74 74 undefined N/A 29.74 1007 10 16 0.00 0.00
12:55 am 00:55 Clear 61 16.2 52 11.3 73 73 undefined N/A 29.74 1007 10 16 0.00 0.00
1:15 am 01:15 Clear 62 16.6 53 11.5 72 72 undefined N/A 29.74 1007 10 16 0.00 0.00
1:35 am 01:35 Mostly Cloudy 62 16.6 52 11.2 71 71 undefined N/A 29.74 1007 10 16 0.00 0.00
1:55 am 01:55 Mostly Cloudy 62 16.6 52 11 70 70 undefined N/A 29.74 1007 10 16 0.00 0.00
2:15 am 02:15 Cloudy 62 16.6 52 11.2 71 71 undefined N/A 29.74 1007 10 16 0.00 0.00
2:35 am 02:35 Cloudy 62 16.5 52 11.1 71 71 undefined N/A 29.74 1007 10 16 0.00 0.00
2:55 am 02:55 Mostly Cloudy 61 16 51 10.4 70 70 undefined N/A 29.74 1007 10 16 0.00 0.00
3:15 am 03:15 Clear 61 16 50 10.2 69 69 undefined N/A 29.74 1007 10 16 0.00 0.00
3:35 am 03:35 Clear 60 15.8 50 10.1 69 69 undefined N/A 29.74 1007 10 16 0.00 0.00
3:55 am 03:55 Clear 60 15.3 50 10.1 71 71 undefined N/A 29.74 1007 10 16 0.00 0.00
4:15 am 04:15 Clear 60 15.3 50 10.1 71 71 undefined N/A 29.71 1006 10 16 0.00 0.00
4:35 am 04:35 Clear 61 15.9 50 10.1 69 69 undefined N/A 29.71 1006 10 16 0.00 0.00
4:55 am 04:55 Clear 60 15.6 50 9.8 69 69 undefined N/A 29.71 1006 10 16 0.00 0.00
5:15 am 05:15 Clear 61 16 50 10 68 68 undefined N/A 29.71 1006 10 16 0.00 0.00
5:35 am 05:35 Clear 60 15.5 50 9.9 69 69 undefined N/A 29.71 1006 10 16 0.00 0.00
5:55 am 05:55 Clear 61 16 50 10 68 68 undefined N/A 29.71 1006 10 16 0.00 0.00
6:15 am 06:15 Clear 61 16 50 10 68 68 undefined N/A 29.71 1006 10 16 0.00 0.00
6:35 am 06:35 Partly Cloudy 61 16 50 10 68 68 undefined N/A 29.71 1006 10 16 0.00 0.00
6:55 am 06:55 Partly Cloudy 61 16 50 10 68 68 undefined N/A 29.71 1006 10 16 0.00 0.00
7:15 am 07:15 Clear 61 16 50 10 68 68 undefined N/A 29.71 1006 10 16 0.00 0.00
7:35 am 07:35 Sunny 61 16 50 10 68 68 undefined N/A 29.71 1006 10 16 0.00 0.00
7:55 am 07:55 Sunny 61 16 50 10 68 68 undefined N/A 29.71 1006 10 16 0.00 0.00
8:15 am 08:15 Sunny 62 16.6 51 10.6 68 68 undefined N/A 29.71 1006 10 16 0.00 0.00
8:35 am 08:35 Partly Cloudy 63 17.3 51 10.4 64 64 undefined N/A 29.71 1006 10 16 0.00 0.00
8:55 am 08:55 Partly Cloudy 64 17.7 51 10.4 62 62 N 13 20 29.71 1006 10 16 0.00 0.00
9:15 am 09:15 Mostly Cloudy 64 18 51 10.4 61 61 undefined N/A 29.71 1006 10 16 0.00 0.00
9:35 am 09:35 Mostly Cloudy 65 18.1 50 10.1 60 60 undefined N/A 29.71 1006 10 16 0.00 0.00
9:55 am 09:55 Partly Cloudy 69 20.8 53 11.5 55 55 N 12 19 29.71 1006 10 16 0.00 0.00
10:15 am 10:15 Partly Cloudy 69 20.8 52 11.3 55 55 N 16 26 29.68 1005 10 16 0.00 0.00
10:35 am 10:35 Partly Cloudy 70 21.2 51 10.7 51 51 N 15 24 29.68 1005 10 16 0.00 0.00
10:55 am 10:55 Mostly Cloudy 71 21.7 52 11.1 51 51 N 18 30 29.68 1005 10 16 0.00 0.00
11:15 am 11:15 Mostly Cloudy 73 22.7 53 11.7 50 50 N 18 30 29.65 1004 10 16 0.00 0.00
11:35 am 11:35 Partly Cloudy 74 23.6 53 11.4 46 46 N 20 31 29.65 1004 10 16 0.00 0.00
11:55 am 11:55 Partly Cloudy 74 23.6 52 11 45 45 N 22 35 29.65 1004 10 16 0.00 0.00
12:15 pm 12:15 Partly Cloudy 74 23.6 51 10.5 44 44 N 26 43 29.62 1003 10 16 0.00 0.00
12:35 pm 12:35 Sunny 74 23.6 49 9.2 40 40 N 22 35 29.62 1003 10 16 0.00 0.00
12:55 pm 12:55 Sunny 77 25.1 49 9.4 37 37 N 21 33 29.59 1002 10 16 0.00 0.00
1:15 pm 13:15 Sunny 77 25.1 48 8.7 35 35 N 21 33 29.56 1001 10 16 0.00 0.00
1:35 pm 13:35 Partly Cloudy 77 25.1 48 8.7 35 35 N 18 30 29.56 1001 10 16 0.00 0.00
1:55 pm 13:55 Partly Cloudy 77 25.1 46 7.6 33 33 N 24 39 29.56 1001 10 16 0.00 0.00
2:15 pm 14:15 Sunny 79 26.2 46 7.6 31 31 N 24 39 29.53 1000 10 16 0.00 0.00
2:35 pm 14:35 Partly Cloudy 79 25.9 46 7.6 31 31 N 23 37 29.53 1000 10 16 0.00 0.00
2:55 pm 14:55 Partly Cloudy 77 25.1 45 7.4 32 32 N 18 30 29.53 1000 10 16 0.00 0.00
3:15 pm 15:15 Partly Cloudy 77 25.1 43 6 29 29 N 20 31 29.53 1000 10 16 0.00 0.00
3:35 pm 15:35 Mostly Cloudy 79 26.2 43 6.1 28 28 N 20 31 29.53 1000 10 16 0.00 0.00
3:55 pm 15:55 Mostly Cloudy 77 25.1 44 6.8 31 31 N 21 33 29.53 1000 10 16 0.00 0.00
4:15 pm 16:15 Mostly Cloudy 77 25.1 46 7.6 33 33 N 14 22 29.53 1000 10 16 0.00 0.00
4:35 pm 16:35 Cloudy 77 25.1 44 6.5 30 30 N 20 31 29.53 1000 N/A 0.00 0.00
4:55 pm 16:55 Cloudy 76 24.5 45 7.4 34 34 N 17 28 29.53 1000 10 16 0.00 0.00
5:15 pm 17:15 Cloudy 76 24.7 45 7.4 33 33 N 16 26 29.53 1000 10 16 0.00 0.00
5:35 pm 17:35 Cloudy 74 23.6 45 7.1 35 35 N 10 17 29.56 1001 10 16 0.00 0.00
5:55 pm 17:55 Cloudy 74 23.6 45 7 34 34 N 13 20 29.50 999 10 16 0.00 0.00
6:15 pm 18:15 Cloudy 74 23.6 46 7.5 36 36 N 7 11 29.50 999 10 16 0.00 0.00
6:35 pm 18:35 Cloudy 74 23.6 46 7.6 36 36 N 9 15 29.50 999 10 16 0.00 0.00
6:55 pm 18:55 Cloudy 74 23.6 44 6.7 34 34 N 10 17 29.50 999 10 16 0.00 0.00
7:15 pm 19:15 Cloudy with Light Rain 74 23.6 48 8.7 39 39 N 9 15 29.50 999 10 16 0.00 0.00
7:35 pm 19:35 Cloudy 64 17.9 52 11 64 64 undefined N/A 29.59 1002 N/A 0.00 0.00
7:55 pm 19:55 Cloudy with Rain 60 15.3 53 11.6 79 79 undefined N/A 29.56 1001 7 11 0.00 0.00
8:15 pm 20:15 Cloudy with Light Rain 61 16 54 12.1 78 78 undefined N/A 29.56 1001 7 11 0.00 0.00
8:35 pm 20:35 Cloudy with Light Rain 61 16 54 12.1 78 78 undefined N/A 29.56 1001 10 16 0.00 0.00
8:55 pm 20:55 Cloudy with Light Rain 60 15.6 54 12.2 80 80 undefined N/A 29.56 1001 10 16 0.00 0.00
9:15 pm 21:15 Cloudy 61 16 55 12.5 80 80 undefined N/A 29.56 1001 10 16 0.00 0.00
9:35 pm 21:35 Mostly Cloudy 61 16 55 12.5 80 80 undefined N/A 29.56 1001 10 16 0.00 0.00
9:55 pm 21:55 Mostly Cloudy with Light Rain 61 16 54 12.3 79 79 undefined N/A 29.56 1001 10 16 0.00 0.00
10:15 pm 22:15 Mostly Cloudy 61 16 54 12 77 77 undefined N/A 29.56 1001 N/A 0.00 0.00
10:35 pm 22:35 Mostly Cloudy 62 16.5 53 11.8 74 74 undefined N/A 29.59 1002 N/A 0.00 0.00
10:55 pm 22:55 Cloudy 60 15.3 52 11 76 76 undefined N/A 29.59 1002 10 16 0.00 0.00
11:15 pm 23:15 Cloudy 57 13.8 44 6.8 63 63 undefined N/A 29.62 1003 10 16 0.00 0.00
11:35 pm 23:35 Cloudy 55 12.5 43 5.9 64 64 undefined N/A 29.62 1003 10 16 0.00 0.00
11:55 pm 23:55 Mostly Cloudy 55 12.5 40 4.4 58 58 undefined N/A 29.62 1003 10 16 0.00 0.00

Powered by AerisWeather